TimeEDT,TemperatureF,Dew PointF,Humidity,Sea Level PressureIn,VisibilityMPH,Wind Direction,Wind SpeedMPH,Gust SpeedMPH,PrecipitationIn,Events,Conditions,WindDirDegrees,DateUTC
12:15 AM,77.0,73.4,89,30.16,10.0,Calm,Calm,-,N/A,,Scattered Clouds,0,2013-07-30 04:15:00
12:35 AM,75.2,73.4,94,30.16,10.0,Calm,Calm,-,N/A,,Scattered Clouds,0,2013-07-30 04:35:00
12:55 AM,77.0,73.4,89,30.16,10.0,Calm,Calm,-,N/A,,Scattered Clouds,0,2013-07-30 04:55:00
1:15 AM,75.2,73.4,94,30.16,10.0,Calm,Calm,-,N/A,,Clear,0,2013-07-30 05:15:00
1:35 AM,75.2,71.6,89,30.16,10.0,Calm,Calm,-,N/A,,Clear,0,2013-07-30 05:35:00
1:55 AM,73.4,73.4,100,30.15,10.0,Calm,Calm,-,N/A,,Clear,0,2013-07-30 05:55:00
2:15 AM,75.2,71.6,89,30.15,10.0,Calm,Calm,-,N/A,,Clear,0,2013-07-30 06:15:00
2:35 AM,73.4,71.6,94,30.15,10.0,Calm,Calm,-,N/A,,Clear,0,2013-07-30 06:35:00
2:55 AM,73.4,71.6,94,30.14,10.0,Calm,Calm,-,N/A,,Clear,0,2013-07-30 06:55:00
3:15 AM,73.4,71.6,94,30.14,10.0,Calm,Calm,-,N/A,,Clear,0,2013-07-30 07:15:00
3:35 AM,73.4,71.6,94,30.14,10.0,Calm,Calm,-,N/A,,Clear,0,2013-07-30 07:35:00
3:55 AM,73.4,71.6,94,30.13,10.0,Calm,Calm,-,N/A,,Clear,0,2013-07-30 07:55:00
4:15 AM,73.4,71.6,94,30.13,10.0,Calm,Calm,-,N/A,,Clear,0,2013-07-30 08:15:00
4:35 AM,73.4,71.6,94,30.13,7.0,Calm,Calm,-,N/A,,Clear,0,2013-07-30 08:35:00
4:55 AM,73.4,71.6,94,30.13,7.0,Calm,Calm,-,N/A,,Clear,0,2013-07-30 08:55:00
5:15 AM,73.4,71.6,94,30.13,7.0,Calm,Calm,-,N/A,,Clear,0,2013-07-30 09:15:00
5:35 AM,71.6,71.6,100,30.13,7.0,Calm,Calm,-,N/A,,Clear,0,2013-07-30 09:35:00
5:55 AM,71.6,71.6,100,30.13,7.0,Calm,Calm,-,N/A,,Clear,0,2013-07-30 09:55:00
6:15 AM,71.6,71.6,100,30.13,10.0,Calm,Calm,-,N/A,,Clear,0,2013-07-30 10:15:00
6:35 AM,71.6,69.8,94,30.14,10.0,Calm,Calm,-,N/A,,Clear,0,2013-07-30 10:35:00
6:55 AM,71.6,71.6,100,30.15,10.0,Calm,Calm,-,N/A,,Clear,0,2013-07-30 10:55:00
7:15 AM,73.4,71.6,94,30.16,10.0,Calm,Calm,-,N/A,,Clear,0,2013-07-30 11:15:00
7:35 AM,73.4,71.6,94,30.17,10.0,Calm,Calm,-,N/A,,Clear,0,2013-07-30 11:35:00
7:55 AM,73.4,71.6,94,30.17,10.0,Calm,Calm,-,N/A,,Clear,0,2013-07-30 11:55:00
8:15 AM,73.4,71.6,94,30.18,10.0,Calm,Calm,-,N/A,,Clear,0,2013-07-30 12:15:00
8:35 AM,77.0,71.6,83,30.18,10.0,Calm,Calm,-,N/A,,Clear,0,2013-07-30 12:35:00
8:55 AM,78.8,71.6,78,30.19,10.0,Calm,Calm,-,N/A,,Clear,0,2013-07-30 12:55:00
9:15 AM,80.6,71.6,74,30.19,10.0,Calm,Calm,-,N/A,,Clear,0,2013-07-30 13:15:00
9:35 AM,82.4,71.6,70,30.19,10.0,Calm,Calm,-,N/A,,Clear,0,2013-07-30 13:35:00
9:55 AM,82.4,71.6,70,30.19,10.0,Calm,Calm,-,N/A,,Clear,0,2013-07-30 13:55:00
10:15 AM,84.2,71.6,66,30.18,10.0,Calm,Calm,-,N/A,,Clear,0,2013-07-30 14:15:00
10:35 AM,86.0,71.6,62,30.18,10.0,Calm,Calm,-,N/A,,Clear,0,2013-07-30 14:35:00
10:55 AM,86.0,71.6,62,30.18,10.0,Calm,Calm,-,N/A,,Clear,0,2013-07-30 14:55:00
11:15 AM,86.0,71.6,62,30.18,10.0,East,3.5,-,N/A,,Clear,80,2013-07-30 15:15:00
11:35 AM,87.8,71.6,58,30.18,10.0,Calm,Calm,-,N/A,,Clear,0,2013-07-30 15:35:00
11:55 AM,87.8,71.6,58,30.17,10.0,Calm,Calm,-,N/A,,Clear,0,2013-07-30 15:55:00
12:15 PM,89.6,71.6,55,30.17,10.0,Calm,Calm,-,N/A,,Clear,0,2013-07-30 16:15:00
12:55 PM,89.6,69.8,52,30.16,10.0,Calm,Calm,-,N/A,,Scattered Clouds,0,2013-07-30 16:55:00
1:15 PM,91.4,69.8,49,30.15,10.0,ENE,4.6,-,N/A,,Scattered Clouds,70,2013-07-30 17:15:00
1:35 PM,89.6,69.8,52,30.14,10.0,Calm,Calm,-,N/A,,Mostly Cloudy,0,2013-07-30 17:35:00
2:15 PM,87.8,73.4,62,30.14,10.0,West,5.8,-,N/A,,Mostly Cloudy,260,2013-07-30 18:15:00
2:35 PM,87.8,73.4,62,30.13,10.0,West,5.8,-,N/A,,Mostly Cloudy,280,2013-07-30 18:35:00
2:55 PM,87.8,75.2,66,30.13,10.0,West,5.8,-,N/A,,Mostly Cloudy,260,2013-07-30 18:55:00
3:15 PM,86.0,73.4,66,30.12,10.0,WSW,4.6,-,N/A,,Mostly Cloudy,240,2013-07-30 19:15:00
3:35 PM,87.8,73.4,62,30.11,10.0,West,3.5,-,N/A,Thunderstorm,Scattered Clouds,260,2013-07-30 19:35:00
3:55 PM,87.8,73.4,62,30.10,10.0,WSW,5.8,-,N/A,,Scattered Clouds,240,2013-07-30 19:55:00
4:15 PM,89.6,73.4,59,30.09,10.0,West,6.9,-,N/A,Thunderstorm,Scattered Clouds,270,2013-07-30 20:15:00
4:35 PM,87.8,73.4,62,30.09,10.0,WSW,6.9,-,N/A,Thunderstorm,Scattered Clouds,250,2013-07-30 20:35:00
4:55 PM,86.0,73.4,66,30.10,10.0,NW,4.6,-,N/A,Thunderstorm,Thunderstorm,310,2013-07-30 20:55:00
5:15 PM,82.4,73.4,74,30.09,10.0,North,6.9,-,N/A,Rain,Light Rain,350,2013-07-30 21:15:00
5:35 PM,80.6,73.4,79,30.09,10.0,North,3.5,-,N/A,Rain-Thunderstorm,Light Thunderstorms and Rain,360,2013-07-30 21:35:00
5:55 PM,80.6,73.4,79,30.10,10.0,Calm,Calm,-,N/A,,Clear,0,2013-07-30 21:55:00
6:15 PM,80.6,73.4,79,30.10,10.0,Calm,Calm,-,N/A,,Scattered Clouds,0,2013-07-30 22:15:00
6:35 PM,80.6,73.4,79,30.10,10.0,North,4.6,-,N/A,,Scattered Clouds,10,2013-07-30 22:35:00
6:55 PM,80.6,71.6,74,30.11,10.0,Calm,Calm,-,N/A,,Clear,0,2013-07-30 22:55:00
7:15 PM,80.6,71.6,74,30.11,10.0,North,3.5,-,N/A,,Clear,10,2013-07-30 23:15:00
7:35 PM,78.8,71.6,78,30.11,10.0,North,3.5,-,N/A,,Clear,10,2013-07-30 23:35:00
7:55 PM,78.8,73.4,83,30.11,10.0,NNE,3.5,-,N/A,,Clear,20,2013-07-30 23:55:00
8:15 PM,78.8,73.4,83,30.11,10.0,NNE,4.6,-,N/A,,Clear,20,2013-07-31 00:15:00
8:35 PM,77.0,73.4,89,30.12,10.0,NE,4.6,-,N/A,,Clear,40,2013-07-31 00:35:00
8:55 PM,77.0,73.4,89,30.12,10.0,Calm,Calm,-,N/A,,Scattered Clouds,0,2013-07-31 00:55:00
9:15 PM,77.0,73.4,89,30.13,10.0,Calm,Calm,-,N/A,Thunderstorm,Scattered Clouds,0,2013-07-31 01:15:00
9:35 PM,77.0,73.4,89,30.13,10.0,Calm,Calm,-,N/A,Thunderstorm,Scattered Clouds,0,2013-07-31 01:35:00
9:55 PM,77.0,73.4,89,30.14,10.0,East,4.6,-,N/A,,Clear,80,2013-07-31 01:55:00
10:15 PM,77.0,73.4,89,30.15,10.0,Calm,Calm,-,N/A,,Clear,0,2013-07-31 02:15:00
10:35 PM,77.0,71.6,83,30.15,10.0,Calm,Calm,-,N/A,,Scattered Clouds,0,2013-07-31 02:35:00
10:55 PM,77.0,71.6,83,30.16,10.0,Calm,Calm,-,N/A,,Scattered Clouds,0,2013-07-31 02:55:00
11:15 PM,77.0,71.6,83,30.16,10.0,Calm,Calm,-,N/A,,Scattered Clouds,0,2013-07-31 03:15:00
11:35 PM,77.0,71.6,83,30.16,10.0,Calm,Calm,-,N/A,,Mostly Cloudy,0,2013-07-31 03:35:00
11:55 PM,77.0,71.6,83,30.15,10.0,Calm,Calm,-,N/A,,Scattered Clouds,0,2013-07-31 03:55:00